[[{"header":{"parameterUnit":"m.s-1","parameterCategory":1,"la1":30.2991,"la2":30.254,"lo1":-89.0895,"lo2":-89.0444,"dy":0.0017,"dx":0.0017,"nx":28,"ny":28,"refTime":"2025-07-20T21:00:00:Z","depth":0,"parameterNumber":2,"parameterNumberName":"U-component_of_WINDS"},"data":[0,0,0,0,0,0,0,0,0,0,0,0,0,0,0,0,0,0,0,0,0,0,0,0,0,0,0,0,0,0,0,0,0,0,0,0,0,0,0,0,0,0,0,0,0,0,0,0,0,0,0,0,0,0,0,0,0,0,3.6509,3.6511,0,3.6646,3.6648,3.6649,3.659,3.6586,3.6583,3.658,3.6725,3.6732,3.6739,0,0,0,0,0,0,0,0,0,0,0,0,0,3.6201,3.6207,3.6509,3.6511,3.6513,3.6646,3.6648,3.665,3.659,3.6586,3.6582,3.6578,3.6723,3.6731,3.674,0,0,0,0,0,0,0,0,0,0,0,0,0,3.6336,3.6209,3.6509,3.6499,3.6499,3.6646,3.6648,3.665,3.6591,3.6586,3.6581,3.6576,3.672,3.6731,3.6741,3.6907,0,0,3.6773,3.6778,0,0,0,0,0,0,0,0,3.6328,3.6347,3.6499,3.65,3.6501,3.6595,3.6592,3.6736,3.6592,3.6557,3.658,3.6574,3.6687,3.67,3.6737,3.6913,3.692,3.6774,3.678,3.6785,3.6788,0,0,0,0,0,0,0,3.6319,3.6341,3.6563,3.6501,3.6502,3.6489,3.6503,3.6619,3.6648,3.6559,3.6555,3.6572,3.6686,3.6727,3.674,3.6922,3.6774,3.6783,3.679,3.6794,3.7241,3.7246,0,0,0,0,0,0,3.6309,3.6334,3.6559,3.6568,3.64,3.6499,3.6514,3.657,3.6647,3.6654,3.6576,3.6569,3.6711,3.6727,3.6744,3.6943,3.6785,3.6795,3.6801,3.7235,3.7242,3.7248,0,0,0,0,0,0,3.6303,3.633,3.6554,3.645,3.6477,3.6509,3.6573,3.6576,3.6616,3.6659,3.6665,3.6612,3.6708,3.673,3.6866,3.6947,3.6799,3.6809,3.7229,3.7237,3.7245,3.7341,0,0,0,0,0,0,3.6294,3.6328,3.639,3.6451,3.6483,3.6672,3.6578,3.6582,3.6633,3.6625,3.6694,3.6701,3.6705,3.6851,3.6877,3.6959,3.6817,3.7222,3.7233,3.7242,3.7331,3.7351,3.7369,0,0,0,0,0,3.6283,3.6413,3.6394,3.6421,3.6561,3.6677,3.6695,3.6696,3.664,3.6704,3.6732,3.6699,3.6934,3.6865,3.6894,3.698,3.7217,3.7229,3.7242,3.7322,3.7347,3.7369,0,0,0,0,0,0,3.6363,3.6421,3.64,3.6553,3.661,3.6666,3.6746,3.6723,3.6798,3.6788,3.6787,3.6803,3.6944,3.6976,3.6899,3.7144,3.7067,3.7086,3.7118,3.7143,3.7162,3.7151,3.6826,0,0,0,0,0,3.6398,3.6485,3.6532,3.6663,3.6692,3.6715,3.6765,3.6761,3.682,3.6845,3.6883,3.6944,3.7031,3.7089,3.7172,3.7335,3.7349,3.7408,3.7428,3.7443,3.746,3.7548,3.7574,3.7289,3.7289,3.7289,0,0,3.6472,3.6514,3.657,3.668,3.6723,3.6815,3.6735,3.6836,3.6904,3.6861,3.6991,3.7021,3.7089,3.7239,3.7308,3.727,3.7541,3.7459,3.7471,3.7479,3.7563,3.759,3.7614,3.7298,3.7296,3.7295,0,0,3.6653,3.6694,3.6806,3.6851,3.6917,3.6931,3.6959,3.7018,3.7036,3.7166,3.7135,3.7217,3.7368,3.7417,3.7462,3.7661,3.7633,3.7688,3.7789,3.7875,3.7897,3.7917,3.7987,3.8013,3.7704,3.7704,3.7705,0,3.6737,3.6872,3.6868,3.6971,3.702,3.6982,3.7097,3.7141,3.7233,3.7268,3.7224,3.7411,3.7455,3.7616,3.7664,3.7702,3.7733,3.768,3.7894,3.7914,3.7932,3.7999,3.8026,3.771,3.771,3.7709,3.7709,0,3.6971,3.7066,3.7149,3.7235,3.7294,3.7403,3.7416,3.7477,3.7467,3.7486,3.7619,3.7669,3.7761,3.7799,3.7792,3.7959,3.7934,3.7892,3.7815,3.7966,3.8029,3.8054,3.7719,3.7717,3.7715,3.7714,0,0,3.7207,3.7288,3.7319,3.7357,3.7427,3.7501,3.7608,3.7695,3.7747,3.7811,3.7901,3.8028,3.799,3.8041,3.8039,3.8114,3.8267,3.8063,3.8065,3.8099,3.8454,3.8484,3.8514,3.825,3.8254,3.8258,3.8448,0,3.7392,3.7577,3.7577,3.7748,3.7835,3.78,3.7894,3.7947,3.7968,3.8046,3.8069,3.8159,3.8102,3.8132,3.8205,3.8233,3.8339,3.822,3.8334,3.8338,3.8317,3.8547,3.858,3.8757,3.8473,3.8477,3.848,0,3.7634,3.7703,3.7882,3.7938,3.7975,3.8058,3.8138,3.8213,3.8273,3.8283,3.8339,3.8325,3.8435,3.8354,3.8505,3.8424,3.8471,3.8492,3.8499,3.8509,3.8418,3.8563,3.8813,3.8839,3.8519,3.8516,3.8513,0,3.7786,3.7925,3.805,3.8084,3.8153,3.8212,3.8244,3.8299,3.8351,3.8422,3.8456,3.8539,3.8585,3.865,3.8659,3.86,3.8812,3.8731,3.8823,3.8823,3.8869,3.8866,3.9129,3.8901,3.89,3.89,3.8899,0,3.7993,3.8105,3.8119,3.8196,3.8319,3.8318,3.8441,3.8468,3.8517,3.8599,3.8576,3.8654,3.8661,3.8742,3.875,3.8874,3.8895,3.8906,3.8907,3.8908,3.8907,3.8939,3.8926,3.8907,3.8905,3.8904,3.8903,0,3.8185,3.8199,3.8332,3.8386,3.8402,3.8491,3.8537,3.8611,3.8628,3.8733,3.8757,3.8786,3.8879,3.8895,3.9006,3.9011,3.9159,3.9148,3.9138,3.9136,3.9227,3.9218,3.9519,3.9559,3.9305,3.9307,3.9309,0,3.8316,3.84,3.8462,3.8514,3.8548,3.8633,3.8686,3.8688,3.8744,3.8819,3.8884,3.8975,3.9047,3.9199,3.923,3.9315,3.9305,3.9405,3.9318,3.9316,3.9306,3.93,3.9308,3.9421,3.9424,3.9427,3.9428,0,3.8546,3.8548,3.8624,3.8703,3.8766,3.8829,3.8888,3.8933,3.8943,3.9007,3.9101,3.9158,3.927,3.936,3.9444,3.9478,3.9456,3.9455,3.9481,3.9483,3.9473,3.9479,3.9183,3.9449,3.9446,3.9445,3.9444,3.9443,3.8711,3.8783,3.8838,3.8923,3.8967,3.9023,3.9094,3.912,3.9198,3.9287,3.9285,3.9388,3.9446,3.9556,3.9596,3.9678,3.9645,3.9683,3.9692,3.9701,3.9709,3.946,3.9693,3.9693,3.9692,3.9692,3.9691,0,3.8939,3.8972,3.905,3.9132,3.92,3.917,3.9234,3.9293,3.9383,3.9439,3.951,3.9618,3.9705,3.9743,3.9829,3.9888,3.9879,3.991,3.9906,3.9914,3.9734,3.9702,3.9915,3.9915,3.9915,3.9915,3.9915,3.9915,3.9066,3.9187,3.9196,3.9339,3.9371,3.9471,3.9509,3.9561,3.9604,3.9725,3.9797,3.982,3.9869,3.9958,4.0037,4.0046,4.0079,4.0114,4.0118,3.9949,3.9927,3.9905,3.9875,4.0121,4.0122,4.0292,4.0293,4.0294]},{"header":{"parameterUnit":"m.s-1","parameterCategory":1,"la1":30.2991,"la2":30.254,"lo1":-89.0895,"lo2":-89.0444,"dy":0.0017,"dx":0.0017,"nx":28,"ny":28,"refTime":"2025-07-20T21:00:00:Z","depth":0,"parameterNumber":3,"parameterNumberName":"V-component_of_WINDS"},"data":[0,0,0,0,0,0,0,0,0,0,0,0,0,0,0,0,0,0,0,0,0,0,0,0,0,0,0,0,0,0,0,0,0,0,0,0,0,0,0,0,0,0,0,0,0,0,0,0,0,0,0,0,0,0,0,0,0,0,0.2524,0.2524,0,0.2522,0.2522,0.2522,0.2494,0.2493,0.2492,0.2492,0.2491,0.2492,0.2493,0,0,0,0,0,0,0,0,0,0,0,0,0,0.2504,0.2504,0.2524,0.2524,0.2524,0.2522,0.2522,0.2522,0.2494,0.2493,0.2492,0.2491,0.2491,0.2492,0.2493,0,0,0,0,0,0,0,0,0,0,0,0,0,0.2508,0.2505,0.2524,0.2509,0.2508,0.2522,0.2522,0.2522,0.2494,0.2493,0.2492,0.2491,0.2491,0.2492,0.2493,0.252,0,0,0.2496,0.2496,0,0,0,0,0,0,0,0,0.2508,0.2509,0.2511,0.251,0.2509,0.2507,0.2515,0.2521,0.2494,0.2499,0.2492,0.249,0.2497,0.2498,0.25,0.252,0.252,0.2496,0.2497,0.2497,0.2497,0,0,0,0,0,0,0,0.2508,0.2509,0.2523,0.2512,0.251,0.2503,0.2503,0.2516,0.2505,0.2499,0.2497,0.2497,0.2497,0.2499,0.25,0.252,0.2496,0.2497,0.2497,0.2498,0.2563,0.2564,0,0,0,0,0,0,0.2509,0.2509,0.2523,0.2523,0.2506,0.2505,0.2504,0.2509,0.2504,0.2503,0.2498,0.2496,0.2498,0.2499,0.25,0.2532,0.2497,0.2498,0.2498,0.2562,0.2563,0.2565,0,0,0,0,0,0,0.2509,0.2511,0.2523,0.2515,0.2516,0.2506,0.2512,0.2509,0.2512,0.2503,0.2501,0.2502,0.2497,0.2498,0.2515,0.2531,0.2498,0.2499,0.2561,0.2562,0.2564,0.2596,0,0,0,0,0,0,0.2509,0.2511,0.2521,0.2516,0.2517,0.2539,0.2512,0.251,0.2513,0.251,0.2507,0.2506,0.2496,0.2514,0.2516,0.2532,0.25,0.2559,0.2561,0.2563,0.2594,0.2599,0.2603,0,0,0,0,0,0.2508,0.2531,0.2522,0.2524,0.2529,0.254,0.254,0.2529,0.2515,0.2525,0.252,0.2506,0.2529,0.2516,0.2518,0.2535,0.2558,0.2561,0.2563,0.2591,0.2598,0.2603,0,0,0,0,0,0,0.2539,0.253,0.252,0.2541,0.2541,0.2535,0.2548,0.2536,0.254,0.2537,0.2523,0.2522,0.2542,0.254,0.2525,0.2561,0.2541,0.2544,0.2562,0.2568,0.2572,0.2573,0.2501,0,0,0,0,0,0.2548,0.2557,0.2548,0.2568,0.2569,0.2558,0.2562,0.2553,0.2553,0.2553,0.2549,0.2549,0.2556,0.2562,0.2568,0.2593,0.2592,0.2605,0.261,0.2614,0.2617,0.263,0.2636,0.2573,0.2573,0.2573,0,0,0.2568,0.2564,0.257,0.2574,0.2573,0.2583,0.2558,0.257,0.2577,0.2555,0.257,0.2567,0.2567,0.2588,0.2597,0.2587,0.2634,0.2617,0.262,0.2621,0.2633,0.2639,0.2644,0.2575,0.2574,0.2574,0,0,0.2608,0.2606,0.2622,0.2621,0.262,0.2612,0.2616,0.2611,0.2608,0.2624,0.2607,0.2615,0.2628,0.2628,0.263,0.267,0.2657,0.2672,0.2697,0.271,0.2715,0.2719,0.2734,0.2739,0.2675,0.2675,0.2675,0,0.2633,0.2647,0.2632,0.2644,0.2647,0.2626,0.2643,0.2642,0.2643,0.2646,0.2634,0.2649,0.2648,0.2668,0.2678,0.268,0.2684,0.2673,0.2715,0.272,0.2723,0.2737,0.2743,0.2677,0.2677,0.2677,0.2677,0,0.2677,0.2686,0.27,0.27,0.2704,0.2718,0.2706,0.2712,0.2702,0.2696,0.2712,0.2709,0.2714,0.2718,0.2709,0.2738,0.2731,0.2718,0.2698,0.2732,0.2744,0.2749,0.268,0.2679,0.2679,0.2678,0,0,0.2738,0.273,0.2735,0.2735,0.2731,0.2738,0.2751,0.2756,0.2761,0.2762,0.2773,0.2784,0.2771,0.2773,0.2764,0.2775,0.2806,0.276,0.2759,0.2769,0.2838,0.2849,0.2855,0.2798,0.2798,0.2799,0.2838,0,0.2778,0.2799,0.2787,0.281,0.2819,0.2799,0.281,0.2809,0.2804,0.2811,0.2805,0.2813,0.2795,0.2796,0.2806,0.28,0.282,0.2797,0.2808,0.2809,0.281,0.2861,0.2873,0.291,0.2843,0.2844,0.2844,0,0.2827,0.2829,0.2854,0.2847,0.2851,0.2861,0.2864,0.287,0.2869,0.2864,0.2866,0.2854,0.2866,0.2846,0.2863,0.2848,0.2851,0.2849,0.285,0.2852,0.2829,0.2865,0.2921,0.2927,0.2852,0.2851,0.2851,0,0.287,0.2879,0.2894,0.2895,0.2888,0.2896,0.2894,0.2891,0.2894,0.2897,0.2899,0.2903,0.2905,0.2909,0.2898,0.2884,0.2917,0.2895,0.2914,0.2914,0.2922,0.2922,0.2981,0.2924,0.2924,0.2923,0.2923,0,0.2915,0.2931,0.2913,0.2923,0.294,0.2925,0.2943,0.2938,0.2936,0.2945,0.2927,0.2936,0.2921,0.2928,0.292,0.2936,0.2937,0.2933,0.2931,0.2935,0.2936,0.2938,0.2936,0.2925,0.2925,0.2924,0.2924,0,0.2966,0.2955,0.2971,0.2963,0.2961,0.2974,0.2967,0.2976,0.2969,0.298,0.2982,0.2971,0.2979,0.2968,0.2974,0.2969,0.2991,0.2984,0.2991,0.2989,0.3009,0.3007,0.3071,0.3079,0.3016,0.3017,0.3017,0,0.2997,0.3008,0.3001,0.3005,0.3004,0.3011,0.3014,0.2999,0.3003,0.3002,0.3011,0.3017,0.3021,0.3034,0.3027,0.3032,0.3026,0.3048,0.3026,0.303,0.3026,0.3026,0.3027,0.3052,0.3053,0.3054,0.3054,0,0.3052,0.3045,0.305,0.3053,0.3056,0.3058,0.3058,0.3063,0.3048,0.3053,0.306,0.3063,0.3069,0.3075,0.3078,0.3076,0.3063,0.3061,0.3065,0.307,0.3074,0.3073,0.3004,0.306,0.3059,0.3059,0.3058,0.3058,0.3093,0.3103,0.3099,0.3105,0.3103,0.3104,0.3112,0.3105,0.311,0.3114,0.3105,0.3114,0.3112,0.3114,0.3113,0.3121,0.3111,0.3118,0.3119,0.3121,0.3125,0.3072,0.3121,0.3121,0.3121,0.3121,0.3121,0,0.3148,0.3144,0.3149,0.315,0.3155,0.3141,0.314,0.3145,0.3153,0.3152,0.3156,0.3164,0.317,0.3163,0.3167,0.3174,0.3168,0.3176,0.3176,0.3176,0.3133,0.3129,0.3181,0.3181,0.3181,0.3181,0.3181,0.3181,0.3177,0.3192,0.3185,0.3199,0.3195,0.3203,0.3204,0.3205,0.3204,0.3213,0.3218,0.3213,0.3209,0.3213,0.3218,0.3215,0.3218,0.3228,0.3224,0.3184,0.3179,0.3173,0.3169,0.3229,0.3229,0.3266,0.3266,0.3267]}]]